Wind_Speed
12 5 8 8 8 8 10 15 14 22 23 24 21 19 17 14 10 12 13 12 11 16 19 21 23 24 24 26 26 29 29 27 31 31 38 34 35 24 23 22 21 19 19 17
12 8 12 11 11 11 13 13 15 22 21 24 20 23 20 14 13 16 14 16 12 17 20 21 22 24 24 26 28 30 23 24 28 31 35 30 35 30 25 25 21 19 18 16
17 14 12 14 13 14 13 16 17 15 24 21 18 16 21 14 16 19 17 13 17 21 22 21 22 24 24 26 30 29 29 25 33 33 33 36 40 32 28 28 23 18 16 17
19 21 15 14 16 20 15 21 23 17 23 14 14 12 19 19 18 15 13 14 17 18 19 20 25 28 26 24 30 31 34 26 35 35 33 32 35 27 25 27 26 25 23 22
14 22 20 17 23 27 27 31 23 20 16 19 15 9 20 16 18 7 9 13 14 14 17 22 26 27 28 27 30 34 33 31 32 32 32 32 25 33 28 26 21 26 22 21
22 20 22 25 26 22 20 17 15 18 16 9 11 10 9 14 15 9 12 20 16 17 21 25 26 27 29 30 33 35 35 32 31 33 30 33 31 30 27 23 21 19 23 17
24 26 26 23 16 18 16 15 10 5 6 6 13 14 14 16 12 13 15 16 18 20 22 24 26 30 32 32 35 37 35 32 29 33 27 27 29 29 29 20 20 18 21 20
11 14 17 13 15 17 15 11 6 11 11 15 16 11 14 16 8 10 14 18 19 20 22 24 26 30 30 33 36 38 34 29 30 28 30 30 28 27 27 25 20 20 20 18
12 13 17 16 17 18 16 14 13 15 15 13 10 17 13 9 10 12 15 17 19 21 23 25 27 31 31 33 36 39 34 30 31 26 30 28 30 32 29 29 22 18 21 21
18 16 18 18 18 17 17 17 12 13 11 8 11 15 7 11 14 12 18 16 18 21 23 25 28 32 32 34 37 39 34 30 31 26 26 26 27 28 28 29 25 21 25 15
16 18 15 16 14 13 15 11 10 10 9 9 11 18 8 12 11 15 17 19 21 22 24 25 30 32 33 36 38 38 33 29 29 26 24 26 28 27 25 25 22 22 16 14
16 17 12 12 19 14 14 11 9 5 13 13 12 13 19 16 17 18 21 21 19 21 24 29 32 33 35 37 39 37 31 28 28 25 20 23 24 24 23 22 18 23 22 20
13 13 10 13 16 16 14 12 12 14 15 14 13 17 15 20 20 21 23 18 20 23 28 30 34 34 35 37 38 38 37 32 30 25 23 24 23 24 24 21 20 20 19 19
14 16 15 11 14 13 14 12 11 14 16 14 15 19 21 22 23 23 16 17 21 24 28 31 35 35 38 38 37 37 35 31 31 25 24 24 25 23 23 22 22 22 23 22
18 18 19 18 15 15 13 16 20 20 20 17 17 24 25 24 21 19 18 19 23 26 29 32 34 35 38 40 37 34 34 31 29 24 21 22 23 23 23 21 19 19 19 19
26 24 18 19 18 17 19 18 21 22 21 22 21 17 18 19 19 18 22 23 24 26 30 34 35 36 40 41 39 34 34 30 30 25 22 22 23 23 22 20 19 20 21 22
21 21 18 13 20 21 24 20 18 22 18 17 14 14 14 16 19 23 24 24 26 28 32 35 35 37 41 42 40 34 34 30 30 27 23 23 24 23 22 21 22 23 25 26
19 19 18 16 18 18 17 15 15 20 19 16 15 13 14 17 21 22 24 26 27 29 33 35 35 38 41 41 39 37 34 30 29 28 24 23 23 23 22 22 23 25 25 26
17 20 20 18 14 17 13 18 15 12 11 13 16 17 17 20 24 25 26 26 28 31 30 34 37 39 40 39 38 37 35 32 29 28 27 25 23 23 22 23 25 26 29 30
18 18 19 23 21 16 11 17 15 13 9 15 16 17 19 23 24 29 26 27 30 34 33 37 39 40 40 38 37 38 36 33 31 29 28 27 27 27 26 27 29 30 32 32
20 22 23 21 26 23 18 17 15 13 14 17 18 20 22 22 25 28 28 32 35 36 34 38 40 40 39 38 38 39 37 34 34 31 30 29 29 28 29 30 31 32 33 34
23 22 21 27 30 29 22 21 18 16 18 21 21 23 24 26 27 28 30 34 36 36 38 40 41 39 38 40 41 40 39 36 35 32 31 30 29 29 30 31 33 34 35 36
29 29 27 27 24 25 21 23 21 22 25 25 27 32 32 31 33 33 35 35 36 38 41 43 41 38 38 40 41 39 40 38 35 33 33 33 31 31 31 33 35 34 36 38
33 31 30 30 28 27 26 27 28 29 28 29 32 35 36 36 37 37 38 38 40 41 43 43 40 39 39 42 41 38 35 34 36 37 33 34 34 33 34 35 34 35 37 42
34 31 31 30 30 30 33 33 33 33 33 35 36 36 39 40 41 42 41 42 43 44 46 44 41 43 40 41 44 42 33 36 36 38 37 37 35 35 37 36 36 38 40 46
33 33 35 35 36 31 33 34 36 37 39 40 40 40 41 42 43 46 45 46 46 48 48 45 44 44 43 44 43 40 37 45 43 42 40 38 36 37 36 36 38 40 46 50
Wind_Direction
230 230 255 290 319 314 328 346 346 353 9 0 353 351 340 344 346 331 307 321 321 334 341 345 342 341 344 345 340 338 330 324 329 326 323 326 321 315 303 308 306 305 302 293
228 255 265 281 290 302 314 331 335 338 347 345 341 339 347 349 336 324 322 332 330 339 339 344 342 343 347 352 346 339 338 328 336 336 338 324 323 310 298 300 296 297 294 289
221 233 261 271 279 294 315 315 325 330 334 337 339 325 335 335 336 327 318 325 331 334 335 341 339 338 341 346 344 350 343 319 331 329 327 324 313 312 297 299 295 294 309 296
230 244 264 279 284 289 305 298 317 322 334 309 327 329 322 323 331 329 331 325 328 325 333 333 332 333 334 336 348 351 349 341 333 333 330 339 336 330 292 290 302 306 304 305
240 249 260 285 284 296 295 295 302 304 310 317 331 357 299 324 324 318 321 334 318 325 332 328 334 337 343 344 349 349 346 337 333 329 337 340 338 328 328 285 297 305 306 313
250 271 264 281 294 299 304 314 305 301 298 315 332 356 274 315 327 275 304 327 321 325 329 329 335 341 349 349 349 344 339 335 334 331 335 336 332 340 331 295 294 301 309 313
266 270 279 284 284 294 318 331 303 310 289 306 348 340 275 305 305 307 297 313 319 321 320 329 336 345 347 348 349 347 343 339 338 335 339 340 336 340 346 328 304 292 303 303
252 276 270 274 286 302 326 325 282 309 314 319 312 334 288 309 309 329 329 328 319 321 328 329 336 344 344 346 348 347 343 340 341 334 337 338 341 339 340 331 307 300 294 300
236 233 266 280 290 300 300 310 306 308 316 325 305 316 320 297 300 317 328 327 327 327 327 329 337 341 339 341 345 345 342 338 338 333 336 336 337 341 346 347 325 296 290 288
243 249 272 279 283 296 302 298 295 308 303 308 318 314 272 309 305 301 319 325 329 327 327 330 337 339 337 340 342 344 341 335 335 332 336 337 339 338 338 340 339 325 304 341
251 253 261 267 280 280 309 305 275 272 284 280 309 303 342 303 305 309 313 316 322 327 326 333 337 337 339 341 344 344 342 337 339 336 337 342 343 338 338 340 342 344 332 322
250 257 251 249 276 291 300 292 283 269 295 302 286 282 292 296 307 302 304 314 320 326 330 338 337 339 341 341 343 344 343 341 343 342 341 347 343 340 338 334 329 341 336 331
253 257 259 289 305 303 305 297 292 294 295 307 289 286 298 288 298 311 307 313 327 330 338 336 336 338 340 342 344 344 345 345 344 343 345 347 345 342 341 338 337 332 334 333
264 262 262 245 258 265 299 303 293 295 286 276 295 275 280 279 289 307 311 322 325 330 333 334 335 336 340 343 343 343 344 343 343 343 343 344 344 344 343 343 342 340 338 328
263 272 262 265 276 292 296 293 290 296 304 280 270 274 274 276 285 297 312 314 322 328 330 332 332 336 338 340 341 341 340 341 345 342 340 342 342 340 341 342 341 339 332 327
246 260 259 276 279 289 292 292 286 295 307 282 285 277 270 271 276 292 309 311 316 322 327 328 332 336 337 337 339 339 339 341 346 342 339 340 339 338 340 342 340 338 336 335
250 260 265 273 273 285 294 297 291 295 306 294 267 259 275 269 278 294 299 304 314 317 320 326 332 334 335 334 336 337 340 340 341 338 335 334 335 337 339 339 335 334 333 331
255 255 262 266 273 285 283 297 295 297 290 281 260 256 266 276 284 292 303 309 313 314 318 325 330 333 333 333 333 334 335 337 336 333 329 330 331 333 334 331 330 331 327 324
254 256 262 266 278 276 311 296 305 317 288 267 255 260 271 281 289 295 304 308 314 315 316 326 329 329 329 330 331 332 331 336 332 328 325 325 323 322 324 326 328 329 326 324
253 253 256 268 275 285 298 285 286 297 303 272 270 273 279 285 295 299 300 301 310 321 313 322 326 325 326 326 328 328 327 331 329 323 322 320 318 317 320 324 326 327 327 324
252 254 259 263 269 274 299 281 279 287 269 278 278 280 282 286 291 294 297 300 307 314 319 322 321 322 323 325 325 324 323 324 325 319 317 315 315 317 317 321 325 324 323 323
254 255 261 266 273 278 275 266 266 268 280 280 275 284 286 287 294 299 299 303 307 311 318 320 319 322 322 321 321 320 317 318 322 315 312 311 311 312 314 317 319 321 320 322
252 250 250 263 268 275 260 260 256 259 268 277 279 282 286 293 295 296 300 304 308 312 316 318 319 321 317 316 318 319 315 316 317 315 310 307 306 307 310 315 316 317 318 320
261 258 257 261 261 264 265 262 264 269 274 276 276 280 286 289 292 297 300 304 309 311 313 316 318 314 311 315 313 312 310 313 316 314 304 300 302 305 310 312 314 315 318 321
261 263 263 261 260 261 263 267 270 273 274 274 277 282 286 290 294 297 301 304 307 309 313 315 314 312 311 314 316 314 308 317 316 311 301 300 301 305 310 311 314 315 317 318
268 268 269 268 268 264 265 268 271 274 276 278 280 282 285 289 294 296 299 303 305 309 311 312 312 312 314 311 310 311 313 317 307 312 302 297 298 302 306 310 312 312 313 317
Height
5952 5954 5955 5952 5952 5952 5952 5950 5949 5946 5944 5940 5936 5933 5928 5924 5922 5920 5918 5917 5915 5912 5909 5906 5903 5899 5895 5891 5887 5883 5878 5872 5867 5860 5853 5845 5839 5833 5828 5826 5821 5817 5815 5814
5953 5954 5950 5950 5950 5950 5950 5950 5950 5945 5942 5940 5935 5932 5927 5923 5921 5919 5917 5914 5912 5910 5908 5906 5902 5899 5895 5891 5887 5881 5875 5869 5862 5855 5847 5841 5833 5828 5823 5820 5816 5812 5809 5808
5949 5952 5949 5948 5949 5949 5951 5947 5948 5945 5941 5937 5934 5926 5926 5923 5921 5917 5915 5913 5911 5908 5907 5905 5902 5899 5895 5890 5885 5878 5871 5863 5856 5850 5842 5835 5828 5822 5818 5814 5811 5807 5805 5805
5947 5945 5946 5947 5947 5946 5948 5945 5943 5942 5940 5939 5934 5934 5924 5921 5919 5917 5913 5912 5911 5909 5907 5904 5901 5898 5894 5889 5881 5873 5866 5859 5852 5844 5837 5830 5823 5815 5810 5808 5809 5805 5802 5801
5948 5944 5945 5946 5945 5944 5944 5941 5940 5939 5937 5935 5932 5932 5922 5920 5917 5916 5914 5912 5910 5908 5906 5902 5899 5895 5890 5883 5876 5869 5863 5856 5847 5839 5833 5826 5818 5812 5804 5802 5802 5801 5798 5796
5941 5941 5943 5943 5942 5941 5939 5936 5935 5934 5933 5933 5931 5929 5917 5920 5917 5916 5914 5912 5910 5907 5904 5900 5896 5891 5885 5878 5872 5866 5858 5851 5843 5834 5828 5822 5815 5807 5798 5796 5795 5795 5795 5793
5938 5940 5939 5940 5940 5938 5936 5935 5929 5933 5929 5931 5928 5927 5925 5919 5918 5915 5913 5911 5908 5905 5902 5897 5893 5886 5880 5875 5869 5861 5854 5847 5839 5832 5826 5819 5812 5805 5798 5794 5791 5790 5790 5790
5938 5939 5935 5937 5937 5935 5934 5933 5936 5933 5928 5928 5923 5926 5919 5917 5916 5914 5911 5908 5905 5902 5899 5895 5891 5885 5878 5872 5865 5858 5850 5842 5836 5829 5823 5816 5810 5804 5798 5791 5787 5786 5785 5784
5935 5936 5933 5933 5932 5932 5931 5931 5930 5928 5926 5925 5922 5920 5916 5915 5914 5912 5909 5906 5903 5900 5897 5892 5888 5882 5876 5869 5862 5854 5846 5839 5833 5827 5821 5814 5808 5801 5795 5790 5784 5782 5782 5781
5931 5932 5930 5929 5929 5929 5928 5927 5928 5924 5927 5924 5918 5917 5917 5913 5911 5910 5907 5904 5901 5898 5894 5889 5884 5879 5872 5866 5858 5850 5842 5836 5829 5823 5817 5811 5805 5799 5793 5788 5784 5781 5778 5778
5928 5928 5929 5927 5927 5928 5926 5924 5923 5923 5922 5923 5919 5915 5909 5911 5909 5908 5905 5903 5899 5896 5891 5886 5881 5875 5868 5861 5853 5845 5838 5832 5826 5820 5814 5808 5801 5796 5791 5786 5782 5778 5776 5774
5924 5925 5926 5927 5923 5923 5921 5921 5920 5921 5917 5919 5916 5916 5910 5908 5906 5904 5901 5898 5895 5892 5887 5882 5876 5870 5863 5856 5848 5841 5835 5828 5822 5817 5811 5805 5800 5795 5789 5785 5781 5777 5773 5771
5920 5921 5923 5923 5922 5920 5918 5916 5916 5915 5914 5914 5914 5913 5903 5904 5902 5900 5897 5894 5891 5887 5882 5878 5872 5866 5859 5852 5844 5837 5830 5823 5817 5811 5806 5802 5799 5794 5788 5784 5780 5776 5773 5769
5917 5918 5919 5922 5920 5918 5915 5913 5912 5911 5910 5911 5910 5908 5902 5900 5897 5895 5893 5890 5887 5882 5878 5874 5868 5861 5854 5848 5840 5834 5826 5820 5814 5808 5805 5801 5797 5792 5787 5782 5778 5774 5770 5768
5914 5914 5914 5913 5912 5912 5912 5910 5907 5906 5905 5902 5903 5898 5895 5894 5893 5891 5888 5886 5882 5878 5874 5869 5864 5857 5850 5843 5837 5830 5823 5817 5811 5806 5803 5798 5794 5789 5783 5779 5774 5770 5766 5762
5909 5909 5909 5908 5907 5906 5905 5905 5902 5901 5898 5896 5893 5891 5890 5890 5889 5887 5885 5881 5878 5873 5869 5864 5858 5852 5846 5839 5832 5826 5820 5813 5807 5802 5798 5794 5790 5785 5780 5776 5771 5767 5763 5759
5904 5903 5904 5905 5902 5901 5900 5898 5898 5895 5892 5890 5889 5890 5887 5886 5885 5882 5880 5877 5873 5869 5864 5859 5853 5847 5841 5834 5827 5821 5816 5809 5803 5799 5794 5789 5785 5781 5775 5770 5766 5761 5758 5753
5898 5898 5898 5899 5897 5897 5898 5893 5891 5888 5886 5885 5884 5884 5882 5881 5880 5877 5875 5871 5868 5863 5859 5853 5848 5842 5836 5829 5822 5817 5811 5805 5800 5796 5790 5786 5781 5777 5771 5766 5762 5758 5753 5749
5892 5893 5893 5893 5894 5894 5891 5886 5886 5882 5882 5879 5879 5879 5878 5877 5874 5872 5869 5866 5862 5858 5853 5848 5842 5836 5830 5823 5817 5811 5806 5800 5796 5792 5787 5782 5777 5771 5766 5762 5757 5752 5748 5742
5886 5887 5888 5887 5886 5887 5887 5883 5881 5880 5879 5876 5875 5874 5873 5871 5869 5865 5863 5860 5856 5852 5847 5842 5836 5831 5824 5817 5811 5806 5800 5795 5790 5786 5782 5777 5772 5767 5762 5756 5751 5745 5739 5733
5880 5880 5881 5882 5879 5881 5881 5878 5877 5876 5879 5872 5871 5869 5867 5866 5864 5861 5857 5854 5849 5845 5840 5835 5830 5824 5817 5810 5805 5800 5794 5789 5784 5779 5774 5769 5765 5759 5754 5749 5744 5738 5732 5725
5874 5875 5875 5873 5874 5875 5874 5873 5872 5871 5868 5866 5865 5863 5861 5859 5857 5854 5850 5846 5842 5838 5832 5828 5822 5817 5809 5803 5798 5793 5788 5783 5778 5772 5767 5762 5757 5751 5746 5741 5735 5729 5724 5717
5867 5867 5868 5868 5869 5866 5866 5866 5864 5863 5862 5861 5859 5856 5854 5851 5849 5846 5842 5839 5834 5830 5825 5819 5814 5808 5802 5796 5791 5786 5781 5776 5771 5765 5760 5755 5749 5743 5737 5731 5725 5718 5714 5707
5857 5859 5860 5861 5862 5859 5859 5858 5857 5855 5855 5853 5850 5848 5846 5843 5840 5837 5834 5830 5826 5822 5817 5812 5807 5800 5795 5789 5783 5778 5773 5768 5763 5757 5751 5745 5740 5735 5728 5722 5716 5711 5705 5699
5848 5850 5851 5852 5852 5853 5849 5850 5849 5848 5847 5844 5842 5841 5838 5835 5832 5828 5825 5821 5818 5813 5809 5804 5798 5793 5787 5782 5777 5772 5766 5760 5755 5749 5743 5738 5732 5727 5721 5715 5708 5701 5696 5689
5840 5842 5840 5842 5839 5843 5842 5841 5840 5839 5837 5836 5834 5832 5830 5827 5824 5819 5815 5812 5808 5803 5799 5795 5790 5785 5780 5774 5768 5763 5758 5752 5745 5740 5734 5728 5722 5716 5710 5705 5699 5692 5686 5678